AAL904 SBGL-KMIA

Flight info

Callsign AAL904
Flight time N/A
Altitude 36000
Route DAKDA DCT OGSOO DCT GIMPO DCT VARIT DCT PULUV UL776 KORTO DCT POS DCT ITLUV UL452 ANADA L452 BQN DCT HARBG Y421 HAGIT Y352 ZQA VIICE2
Aircraft B772/H-SDE2E3FGHIJ5LORVWXY/LB1D1

Departure

Time 2026-04-30 02:44
Airport Rio Galeão – Tom Jobim International Airport (SBGL)

Arrival

Time N/A
Airport Miami International Airport (KMIA)
Time Latitude Longitude Altitude Speed Heading
2026-04-30 02:15 -22.81902 -43.24459 43 ft 0 kts 76°
2026-04-30 02:30 -22.81905 -43.24474 42 ft 2 kts 76°
2026-04-30 02:31 -22.81909 -43.24490 42 ft 2 kts 76°
2026-04-30 02:31 -22.81913 -43.24506 42 ft 2 kts 76°
2026-04-30 02:31 -22.81916 -43.24522 42 ft 2 kts 76°
2026-04-30 02:31 -22.81920 -43.24537 42 ft 2 kts 76°
2026-04-30 02:32 -22.81923 -43.24553 42 ft 2 kts 90°
2026-04-30 02:32 -22.81920 -43.24569 42 ft 2 kts 116°
2026-04-30 02:32 -22.81912 -43.24582 41 ft 2 kts 138°
2026-04-30 02:32 -22.81899 -43.24591 41 ft 2 kts 162°
2026-04-30 02:33 -22.81884 -43.24593 41 ft 2 kts 185°
2026-04-30 02:33 -22.81870 -43.24589 41 ft 2 kts 208°
2026-04-30 02:33 -22.81864 -43.24586 41 ft 1 kts 215°
2026-04-30 02:33 -22.81862 -43.24585 41 ft 0 kts 214°
2026-04-30 02:37 -22.81875 -43.24594 40 ft 6 kts 214°
2026-04-30 02:38 -22.81933 -43.24635 40 ft 11 kts 203°
2026-04-30 02:38 -22.82013 -43.24658 39 ft 13 kts 209°
2026-04-30 02:38 -22.82111 -43.24723 34 ft 18 kts 193°
2026-04-30 02:38 -22.82201 -43.24651 34 ft 16 kts 124°
2026-04-30 02:39 -22.82264 -43.24554 35 ft 15 kts 127°
2026-04-30 02:39 -22.82333 -43.24452 36 ft 16 kts 123°
2026-04-30 02:39 -22.82399 -43.24352 37 ft 16 kts 126°
2026-04-30 02:39 -22.82464 -43.24254 38 ft 15 kts 125°
2026-04-30 02:40 -22.82515 -43.24181 40 ft 8 kts 143°
2026-04-30 02:40 -22.82576 -43.24183 40 ft 10 kts 207°
2026-04-30 02:40 -22.82651 -43.24224 38 ft 13 kts 182°
2026-04-30 02:40 -22.82748 -43.24191 38 ft 16 kts 157°
2026-04-30 02:41 -22.82859 -43.24138 37 ft 18 kts 156°
2026-04-30 02:41 -22.82953 -43.24085 36 ft 12 kts 144°
2026-04-30 02:41 -22.83012 -43.24017 36 ft 12 kts 127°
2026-04-30 02:41 -22.83021 -43.23955 37 ft 7 kts 60°
2026-04-30 02:42 -22.82984 -43.23915 39 ft 6 kts 38°
2026-04-30 02:42 -22.82947 -43.23885 40 ft 6 kts 34°
2026-04-30 02:42 -22.82909 -43.23880 41 ft 6 kts 319°
2026-04-30 02:42 -22.82865 -43.23930 41 ft 0 kts 304°
2026-04-30 02:43 -22.82776 -43.24068 40 ft 59 kts 304°
2026-04-30 02:43 -22.82394 -43.24659 35 ft 131 kts 305°
2026-04-30 02:43 -22.81740 -43.25614 244 ft 171 kts 304°
2026-04-30 02:44 -22.80968 -43.26664 812 ft 185 kts 309°
2026-04-30 02:44 -22.80318 -43.27778 1764 ft 177 kts 291°
2026-04-30 02:44 -22.79829 -43.29067 2301 ft 194 kts 294°
2026-04-30 02:44 -22.79257 -43.30436 2881 ft 209 kts 295°
2026-04-30 02:45 -22.78635 -43.31919 3493 ft 225 kts 295°
2026-04-30 02:45 -22.77966 -43.33511 4187 ft 241 kts 295°
2026-04-30 02:45 -22.77249 -43.35218 4899 ft 256 kts 295°
2026-04-30 02:45 -22.76503 -43.36996 5689 ft 268 kts 295°
2026-04-30 02:46 -22.75725 -43.38847 6651 ft 274 kts 295°
2026-04-30 02:46 -22.74935 -43.40729 7625 ft 278 kts 295°
2026-04-30 02:46 -22.74147 -43.42606 8574 ft 281 kts 295°
2026-04-30 02:46 -22.73230 -43.44502 9445 ft 286 kts 308°
2026-04-30 02:47 -22.71750 -43.45886 10278 ft 289 kts 331°
2026-04-30 02:47 -22.69817 -43.46681 10928 ft 303 kts 347°
2026-04-30 02:47 -22.67671 -43.46819 11472 ft 322 kts
2026-04-30 02:47 -22.65441 -43.46163 11994 ft 342 kts 24°
2026-04-30 02:48 -22.63290 -43.44802 12216 ft 370 kts 28°
2026-04-30 02:48 -22.60940 -43.43424 12308 ft 398 kts 26°
2026-04-30 02:48 -22.58480 -43.42071 13276 ft 396 kts 21°
2026-04-30 02:48 -22.55910 -43.41135 14515 ft 385 kts 11°
2026-04-30 02:49 -22.53334 -43.40471 15604 ft 381 kts
2026-04-30 02:49 -22.50743 -43.39821 16472 ft 384 kts
2026-04-30 02:49 -22.48129 -43.39167 17196 ft 390 kts
2026-04-30 02:49 -22.45440 -43.38495 17982 ft 394 kts
2026-04-30 02:50 -22.42744 -43.37820 18789 ft 398 kts
2026-04-30 02:50 -22.40054 -43.37147 19558 ft 401 kts
2026-04-30 02:50 -22.37298 -43.36459 20321 ft 404 kts
2026-04-30 02:50 -22.34499 -43.35759 21019 ft 409 kts
2026-04-30 02:51 -22.31649 -43.35048 21711 ft 413 kts
2026-04-30 02:51 -22.28806 -43.34339 22375 ft 417 kts
2026-04-30 02:51 -22.25950 -43.33626 23052 ft 420 kts
2026-04-30 02:51 -22.23016 -43.32894 23661 ft 424 kts
2026-04-30 02:52 -22.20076 -43.32161 24268 ft 428 kts
2026-04-30 02:52 -22.17102 -43.31420 24873 ft 431 kts
2026-04-30 02:52 -22.14319 -43.30727 25411 ft 434 kts
2026-04-30 02:52 -22.11358 -43.29990 25927 ft 438 kts
2026-04-30 02:53 -22.08399 -43.29253 26396 ft 442 kts
2026-04-30 02:53 -22.05370 -43.28500 26847 ft 446 kts
2026-04-30 02:53 -22.02315 -43.27739 27353 ft 448 kts
2026-04-30 02:53 -21.99286 -43.26985 27812 ft 450 kts
2026-04-30 02:54 -21.96216 -43.26223 28195 ft 453 kts
2026-04-30 02:54 -21.93099 -43.25448 28573 ft 457 kts
2026-04-30 02:54 -21.89916 -43.24657 28970 ft 459 kts
2026-04-30 02:54 -21.86770 -43.23876 29342 ft 462 kts
2026-04-30 02:55 -21.83516 -43.23069 29706 ft 465 kts
2026-04-30 02:55 -21.80296 -43.22269 30025 ft 468 kts
2026-04-30 02:55 -21.77018 -43.21457 30332 ft 472 kts
2026-04-30 02:55 -21.73734 -43.20643 30684 ft 474 kts
2026-04-30 02:56 -21.70419 -43.19821 31017 ft 476 kts
2026-04-30 02:56 -21.67130 -43.19006 31299 ft 478 kts
2026-04-30 02:56 -21.63740 -43.18166 31567 ft 481 kts
2026-04-30 02:56 -21.60398 -43.17339 31822 ft 484 kts
2026-04-30 02:57 -21.57026 -43.16505 32096 ft 486 kts
2026-04-30 02:57 -21.53606 -43.15658 32495 ft 485 kts
2026-04-30 02:57 -21.50240 -43.14825 32912 ft 484 kts
2026-04-30 02:57 -21.46966 -43.14015 33300 ft 483 kts
2026-04-30 02:58 -21.43669 -43.13200 33588 ft 484 kts
2026-04-30 02:58 -21.40454 -43.12407 33855 ft 485 kts
2026-04-30 02:58 -21.37190 -43.11600 34179 ft 484 kts
2026-04-30 02:58 -21.33881 -43.10883 34523 ft 480 kts
2026-04-30 02:59 -21.30472 -43.10669 34847 ft 473 kts 354°
2026-04-30 02:59 -21.27189 -43.11005 35089 ft 468 kts 346°
2026-04-30 02:59 -21.24006 -43.11862 35293 ft 464 kts 338°
2026-04-30 02:59 -21.20999 -43.13193 35494 ft 461 kts 331°
2026-04-30 03:00 -21.18099 -43.14701 35744 ft 460 kts 330°
2026-04-30 03:00 -21.15209 -43.16221 35948 ft 460 kts 330°
2026-04-30 03:00 -21.12289 -43.17760 36097 ft 460 kts 330°
2026-04-30 03:01 -21.06501 -43.20813 36127 ft 462 kts 330°
2026-04-30 03:01 -21.00737 -43.23854 36143 ft 461 kts 330°
2026-04-30 03:02 -20.94896 -43.26934 36152 ft 461 kts 330°
2026-04-30 03:02 -20.88982 -43.30051 36150 ft 462 kts 330°
2026-04-30 03:03 -20.83085 -43.33157 36156 ft 462 kts 330°
2026-04-30 03:03 -20.74189 -43.37837 36153 ft 463 kts 330°
2026-04-30 03:04 -20.68273 -43.40946 36165 ft 462 kts 330°
2026-04-30 03:04 -20.62424 -43.44017 36179 ft 464 kts 330°
2026-04-30 03:05 -20.56592 -43.47077 36196 ft 464 kts 330°
2026-04-30 03:05 -20.50666 -43.50176 36212 ft 463 kts 330°
2026-04-30 03:06 -20.44764 -43.53271 36217 ft 465 kts 330°
2026-04-30 03:06 -20.38913 -43.56335 36210 ft 463 kts 330°
2026-04-30 03:07 -20.33006 -43.59424 36202 ft 464 kts 330°
2026-04-30 03:07 -20.27067 -43.62528 36197 ft 465 kts 331°
2026-04-30 03:08 -20.21160 -43.65611 36195 ft 465 kts 331°
2026-04-30 03:08 -20.15204 -43.68717 36204 ft 466 kts 331°
2026-04-30 03:09 -20.09233 -43.71829 36210 ft 466 kts 331°
2026-04-30 03:09 -20.03268 -43.74934 36220 ft 466 kts 331°
2026-04-30 03:10 -19.97307 -43.78035 36207 ft 465 kts 331°
2026-04-30 03:10 -19.91393 -43.81109 36187 ft 466 kts 331°
2026-04-30 03:11 -19.85465 -43.84250 36175 ft 464 kts 327°
2026-04-30 03:11 -19.79882 -43.88020 36174 ft 465 kts 324°
2026-04-30 03:12 -19.74314 -43.91842 36170 ft 464 kts 324°
2026-04-30 03:12 -19.68775 -43.95639 36167 ft 464 kts 324°
2026-04-30 03:13 -19.63203 -43.99451 36165 ft 464 kts 325°
2026-04-30 03:13 -19.57658 -44.03242 36163 ft 465 kts 325°
2026-04-30 03:14 -19.52090 -44.07043 36158 ft 465 kts 325°
2026-04-30 03:14 -19.46509 -44.10851 36154 ft 465 kts 325°
2026-04-30 03:15 -19.40901 -44.14673 36151 ft 465 kts 325°
2026-04-30 03:15 -19.35276 -44.18504 36152 ft 466 kts 325°
2026-04-30 03:16 -19.29725 -44.22281 36150 ft 466 kts 325°
2026-04-30 03:16 -19.24103 -44.26103 36147 ft 466 kts 325°
2026-04-30 03:17 -19.18506 -44.29905 36146 ft 467 kts 325°
2026-04-30 03:17 -19.12909 -44.33704 36146 ft 468 kts 325°
2026-04-30 03:18 -19.07302 -44.37507 36143 ft 467 kts 325°
2026-04-30 03:18 -19.01686 -44.41312 36145 ft 467 kts 325°
2026-04-30 03:19 -18.96220 -44.45313 36148 ft 467 kts 320°
2026-04-30 03:19 -18.90966 -44.49634 36140 ft 467 kts 320°
2026-04-30 03:20 -18.85730 -44.53902 36135 ft 467 kts 320°
2026-04-30 03:20 -18.80460 -44.58173 36129 ft 467 kts 320°
2026-04-30 03:21 -18.75184 -44.62434 36128 ft 467 kts 320°
2026-04-30 03:21 -18.69916 -44.66679 36127 ft 466 kts 321°
2026-04-30 03:22 -18.64606 -44.70952 36131 ft 469 kts 321°
2026-04-30 03:22 -18.59316 -44.75203 36133 ft 468 kts 321°
2026-04-30 03:23 -18.54037 -44.79442 36133 ft 468 kts 321°
2026-04-30 03:23 -18.48743 -44.83688 36134 ft 469 kts 321°
2026-04-30 03:24 -18.43431 -44.87945 36132 ft 467 kts 321°
2026-04-30 03:24 -18.38132 -44.92189 36134 ft 468 kts 321°
2026-04-30 03:25 -18.32814 -44.96444 36135 ft 469 kts 321°
2026-04-30 03:25 -18.27572 -45.00635 36131 ft 468 kts 321°
2026-04-30 03:26 -18.22249 -45.04888 36127 ft 468 kts 321°
2026-04-30 03:26 -18.16926 -45.09137 36122 ft 468 kts 321°
2026-04-30 03:27 -18.11554 -45.13422 36120 ft 468 kts 321°
2026-04-30 03:27 -18.06256 -45.17645 36120 ft 467 kts 321°
2026-04-30 03:28 -18.00926 -45.21889 36118 ft 469 kts 321°
2026-04-30 03:28 -17.95612 -45.26118 36119 ft 468 kts 321°
2026-04-30 03:29 -17.90287 -45.30352 36122 ft 470 kts 321°
2026-04-30 03:29 -17.84919 -45.34617 36127 ft 469 kts 321°
2026-04-30 03:30 -17.79633 -45.38814 36137 ft 469 kts 321°
2026-04-30 03:30 -17.74290 -45.43053 36143 ft 469 kts 321°
2026-04-30 03:31 -17.68950 -45.47286 36143 ft 469 kts 321°
2026-04-30 03:31 -17.63636 -45.51495 36141 ft 469 kts 321°
2026-04-30 03:32 -17.58291 -45.55725 36128 ft 470 kts 321°
2026-04-30 03:32 -17.52949 -45.59951 36116 ft 470 kts 321°
2026-04-30 03:33 -17.47599 -45.64179 36108 ft 470 kts 321°
2026-04-30 03:33 -17.42272 -45.68386 36106 ft 469 kts 322°
2026-04-30 03:34 -17.36949 -45.72586 36097 ft 469 kts 322°
2026-04-30 03:34 -17.31611 -45.76796 36093 ft 470 kts 322°
2026-04-30 03:35 -17.26121 -45.80887 36088 ft 470 kts 324°
2026-04-30 03:35 -17.20594 -45.84832 36086 ft 471 kts 324°
2026-04-30 03:36 -17.15050 -45.88802 36084 ft 471 kts 324°
2026-04-30 03:36 -17.09511 -45.92774 36082 ft 472 kts 324°
2026-04-30 03:37 -17.03974 -45.96746 36081 ft 472 kts 324°
2026-04-30 03:37 -16.98376 -46.00761 36077 ft 473 kts 324°
2026-04-30 03:38 -16.92843 -46.04728 36079 ft 473 kts 324°
2026-04-30 03:38 -16.87244 -46.08740 36080 ft 473 kts 324°
2026-04-30 03:39 -16.81744 -46.12677 36079 ft 471 kts 324°
2026-04-30 03:39 -16.76235 -46.16620 36082 ft 472 kts 324°
2026-04-30 03:40 -16.70703 -46.20576 36082 ft 473 kts 324°
2026-04-30 03:40 -16.65247 -46.24474 36094 ft 473 kts 324°
2026-04-30 03:41 -16.59808 -46.28358 36106 ft 473 kts 324°
2026-04-30 03:41 -16.54359 -46.32246 36108 ft 473 kts 324°
2026-04-30 03:42 -16.48866 -46.36163 36107 ft 474 kts 324°
2026-04-30 03:42 -16.43441 -46.40029 36108 ft 475 kts 325°
2026-04-30 03:43 -16.37964 -46.43929 36116 ft 475 kts 325°
2026-04-30 03:43 -16.32481 -46.47830 36124 ft 475 kts 325°
2026-04-30 03:44 -16.27011 -46.51720 36135 ft 476 kts 325°
2026-04-30 03:44 -16.21545 -46.55604 36140 ft 476 kts 325°
2026-04-30 03:45 -16.16053 -46.59504 36141 ft 476 kts 325°
2026-04-30 03:45 -16.10592 -46.63379 36141 ft 476 kts 325°
2026-04-30 03:46 -16.05077 -46.67291 36145 ft 476 kts 325°
2026-04-30 03:46 -15.99679 -46.71115 36150 ft 477 kts 325°
2026-04-30 03:47 -15.94176 -46.75013 36147 ft 476 kts 325°
2026-04-30 03:47 -15.88700 -46.78888 36139 ft 477 kts 325°
2026-04-30 03:48 -15.83235 -46.82753 36134 ft 476 kts 325°
2026-04-30 03:48 -15.77751 -46.86629 36139 ft 476 kts 325°
2026-04-30 03:49 -15.72257 -46.90510 36142 ft 477 kts 325°
2026-04-30 03:49 -15.66780 -46.94376 36142 ft 475 kts 325°
2026-04-30 03:50 -15.61322 -46.98226 36141 ft 474 kts 326°
2026-04-30 03:50 -15.55868 -47.02070 36142 ft 475 kts 326°
2026-04-30 03:51 -15.50363 -47.05948 36140 ft 476 kts 326°
2026-04-30 03:51 -15.44932 -47.09772 36142 ft 474 kts 326°
2026-04-30 03:52 -15.39430 -47.13643 36139 ft 475 kts 326°
2026-04-30 03:52 -15.33960 -47.17488 36137 ft 476 kts 326°
2026-04-30 03:53 -15.28462 -47.21351 36138 ft 476 kts 326°
2026-04-30 03:53 -15.22986 -47.25196 36136 ft 477 kts 326°
2026-04-30 03:54 -15.17486 -47.29056 36116 ft 478 kts 326°
2026-04-30 03:54 -15.11967 -47.32926 36109 ft 478 kts 326°
2026-04-30 03:55 -15.06460 -47.36785 36101 ft 478 kts 326°
2026-04-30 03:55 -15.00953 -47.40642 36088 ft 479 kts 326°
2026-04-30 03:56 -14.95432 -47.44506 36090 ft 479 kts 326°
2026-04-30 03:56 -14.89908 -47.48370 36109 ft 478 kts 326°
2026-04-30 03:57 -14.84376 -47.52238 36138 ft 477 kts 326°
2026-04-30 03:57 -14.78880 -47.56078 36153 ft 478 kts 326°
2026-04-30 03:58 -14.73384 -47.59914 36165 ft 478 kts 326°
2026-04-30 03:58 -14.67888 -47.63749 36151 ft 478 kts 326°
2026-04-30 03:59 -14.62205 -47.67378 36141 ft 478 kts 331°
2026-04-30 03:59 -14.56341 -47.70746 36127 ft 478 kts 331°
2026-04-30 04:00 -14.50535 -47.74078 36114 ft 478 kts 332°
2026-04-30 04:00 -14.44748 -47.77399 36107 ft 478 kts 332°
2026-04-30 04:01 -14.38907 -47.80751 36104 ft 478 kts 332°
2026-04-30 04:01 -14.33101 -47.84081 36096 ft 479 kts 332°
2026-04-30 04:02 -14.27267 -47.87425 36090 ft 480 kts 332°
2026-04-30 04:02 -14.21395 -47.90789 36070 ft 480 kts 332°
2026-04-30 04:03 -14.15576 -47.94121 36049 ft 479 kts 332°
2026-04-30 04:03 -14.09744 -47.97458 36043 ft 479 kts 332°
2026-04-30 04:04 -14.03888 -48.00808 36022 ft 479 kts 332°
2026-04-30 04:04 -13.98031 -48.04155 36014 ft 480 kts 332°
2026-04-30 04:05 -13.92195 -48.07488 36006 ft 480 kts 332°
2026-04-30 04:05 -13.86296 -48.10857 36002 ft 480 kts 332°
2026-04-30 04:06 -13.80462 -48.14185 35999 ft 479 kts 332°
2026-04-30 04:06 -13.74637 -48.17507 35996 ft 479 kts 332°
2026-04-30 04:07 -13.68784 -48.20843 35996 ft 479 kts 332°
2026-04-30 04:08 -13.60027 -48.25831 35996 ft 479 kts 332°
2026-04-30 04:08 -13.54198 -48.29147 35998 ft 480 kts 332°
2026-04-30 04:09 -13.48352 -48.32473 35999 ft 480 kts 332°
2026-04-30 04:09 -13.42488 -48.35806 36001 ft 480 kts 332°
2026-04-30 04:10 -13.36610 -48.39145 36005 ft 479 kts 332°
2026-04-30 04:10 -13.30789 -48.42451 36007 ft 479 kts 332°
2026-04-30 04:11 -13.24936 -48.45772 36015 ft 478 kts 332°
2026-04-30 04:11 -13.19108 -48.49078 36017 ft 478 kts 332°
2026-04-30 04:12 -13.13273 -48.52386 36018 ft 479 kts 332°
2026-04-30 04:12 -13.07399 -48.55714 36009 ft 479 kts 332°
2026-04-30 04:13 -13.01564 -48.59018 36008 ft 479 kts 332°
2026-04-30 04:13 -12.95698 -48.62338 36001 ft 479 kts 332°
2026-04-30 04:14 -12.89831 -48.65656 36002 ft 479 kts 332°
2026-04-30 04:14 -12.83971 -48.68969 35995 ft 479 kts 332°
2026-04-30 04:15 -12.78126 -48.72272 35990 ft 478 kts 332°
2026-04-30 04:15 -12.72281 -48.75573 35982 ft 479 kts 332°
2026-04-30 04:16 -12.66356 -48.78917 35976 ft 480 kts 332°
2026-04-30 04:16 -12.60504 -48.82219 35973 ft 480 kts 332°
2026-04-30 04:17 -12.54644 -48.85522 35971 ft 480 kts 332°
2026-04-30 04:17 -12.48811 -48.88809 35971 ft 479 kts 332°
2026-04-30 04:18 -12.42952 -48.92109 35964 ft 479 kts 332°
2026-04-30 04:18 -12.37102 -48.95402 35964 ft 479 kts 332°
2026-04-30 04:19 -12.31252 -48.98693 35962 ft 479 kts 332°
2026-04-30 04:19 -12.25442 -49.01960 35962 ft 479 kts 332°
2026-04-30 04:20 -12.19556 -49.05268 35957 ft 480 kts 332°
2026-04-30 04:20 -12.13685 -49.08567 35953 ft 480 kts 332°
2026-04-30 04:21 -12.07843 -49.11847 35956 ft 479 kts 332°
2026-04-30 04:21 -12.01996 -49.15128 35944 ft 479 kts 332°
2026-04-30 04:22 -11.96132 -49.18417 35933 ft 479 kts 332°
2026-04-30 04:22 -11.90273 -49.21702 35930 ft 479 kts 332°
2026-04-30 04:23 -11.84416 -49.24984 35930 ft 479 kts 332°
2026-04-30 04:23 -11.78575 -49.28256 35929 ft 479 kts 332°
2026-04-30 04:24 -11.72720 -49.31533 35930 ft 478 kts 332°
2026-04-30 04:24 -11.66863 -49.34810 35930 ft 478 kts 332°
2026-04-30 04:25 -11.61061 -49.38055 35929 ft 478 kts 332°
2026-04-30 04:25 -11.55207 -49.41328 35930 ft 478 kts 332°
2026-04-30 04:26 -11.49376 -49.44585 35931 ft 478 kts 332°
2026-04-30 04:26 -11.43537 -49.47846 35930 ft 478 kts 332°
2026-04-30 04:27 -11.37710 -49.51099 35929 ft 478 kts 332°
2026-04-30 04:27 -11.31844 -49.54371 35927 ft 478 kts 332°
2026-04-30 04:28 -11.26035 -49.57611 35925 ft 478 kts 332°
2026-04-30 04:28 -11.20195 -49.60866 35923 ft 478 kts 332°
2026-04-30 04:29 -11.14333 -49.64132 35920 ft 478 kts 332°
2026-04-30 04:29 -11.08464 -49.67401 35913 ft 477 kts 332°
2026-04-30 04:30 -11.02620 -49.70654 35911 ft 477 kts 332°
2026-04-30 04:30 -10.96758 -49.73915 35912 ft 477 kts 332°
2026-04-30 04:31 -10.90908 -49.77168 35911 ft 476 kts 332°
2026-04-30 04:31 -10.85068 -49.80415 35911 ft 476 kts 332°
2026-04-30 04:32 -10.79218 -49.83666 35909 ft 476 kts 332°
2026-04-30 04:32 -10.73381 -49.86907 35907 ft 476 kts 332°
2026-04-30 04:33 -10.67565 -49.90136 35906 ft 475 kts 332°
2026-04-30 04:33 -10.61731 -49.93373 35911 ft 475 kts 332°
2026-04-30 04:34 -10.55916 -49.96582 35906 ft 475 kts 335°
2026-04-30 04:34 -10.49830 -49.99345 35914 ft 475 kts 337°
2026-04-30 04:35 -10.43786 -50.02046 35914 ft 474 kts 337°
2026-04-30 04:35 -10.37729 -50.04774 35913 ft 474 kts 337°
2026-04-30 04:36 -10.31659 -50.07522 35912 ft 474 kts 337°
2026-04-30 04:36 -10.25635 -50.10256 35912 ft 474 kts 337°
2026-04-30 04:37 -10.19573 -50.13009 35911 ft 474 kts 337°
2026-04-30 04:37 -10.13541 -50.15749 35911 ft 474 kts 337°
2026-04-30 04:38 -10.07492 -50.18497 35911 ft 474 kts 337°
2026-04-30 04:38 -10.01461 -50.21236 35910 ft 473 kts 337°
2026-04-30 04:39 -9.95448 -50.23966 35908 ft 473 kts 337°
2026-04-30 04:39 -9.89487 -50.26671 35909 ft 473 kts 337°
2026-04-30 04:40 -9.83407 -50.29429 35912 ft 473 kts 337°
2026-04-30 04:40 -9.77336 -50.32183 35913 ft 474 kts 337°
2026-04-30 04:41 -9.71287 -50.34925 35915 ft 474 kts 337°
2026-04-30 04:41 -9.65246 -50.37662 35918 ft 474 kts 337°
2026-04-30 04:42 -9.59294 -50.40358 35921 ft 473 kts 337°
2026-04-30 04:42 -9.53243 -50.43098 35925 ft 473 kts 337°
2026-04-30 04:43 -9.47240 -50.45815 35926 ft 473 kts 337°
2026-04-30 04:43 -9.41205 -50.48546 35922 ft 474 kts 337°
2026-04-30 04:44 -9.35159 -50.51280 35923 ft 473 kts 337°
2026-04-30 04:44 -9.29064 -50.54035 35922 ft 473 kts 337°
2026-04-30 04:45 -9.23040 -50.56757 35929 ft 473 kts 337°
2026-04-30 04:45 -9.17017 -50.59478 35929 ft 473 kts 337°
2026-04-30 04:46 -9.10991 -50.62199 35935 ft 473 kts 337°
2026-04-30 04:46 -9.04954 -50.64925 35945 ft 473 kts 337°
2026-04-30 04:47 -8.98911 -50.67652 35946 ft 472 kts 337°
2026-04-30 04:47 -8.92877 -50.70374 35950 ft 473 kts 337°
2026-04-30 04:48 -8.86806 -50.73111 35954 ft 474 kts 337°
2026-04-30 04:48 -8.80813 -50.75812 35958 ft 473 kts 337°
2026-04-30 04:49 -8.74748 -50.78545 35966 ft 473 kts 337°
2026-04-30 04:49 -8.68690 -50.81274 35965 ft 473 kts 337°
2026-04-30 04:50 -8.62684 -50.83978 35966 ft 471 kts 337°
2026-04-30 04:50 -8.56685 -50.86679 35970 ft 471 kts 337°
2026-04-30 04:51 -8.50607 -50.89413 35970 ft 471 kts 337°
2026-04-30 04:51 -8.44612 -50.92110 35961 ft 471 kts 337°
2026-04-30 04:52 -8.38517 -50.94850 35951 ft 472 kts 337°
2026-04-30 04:52 -8.32503 -50.97554 35944 ft 471 kts 337°
2026-04-30 04:53 -8.26482 -51.00259 35944 ft 472 kts 337°
2026-04-30 04:53 -8.20468 -51.02960 35938 ft 471 kts 337°
2026-04-30 04:54 -8.14485 -51.05647 35933 ft 470 kts 337°
2026-04-30 04:54 -8.08462 -51.08351 35932 ft 470 kts 337°
2026-04-30 04:55 -8.02474 -51.11038 35927 ft 471 kts 337°
2026-04-30 04:55 -7.96480 -51.13726 35934 ft 471 kts 337°
2026-04-30 04:56 -7.90453 -51.16429 35936 ft 472 kts 337°
2026-04-30 04:56 -7.84405 -51.19141 35936 ft 470 kts 337°
2026-04-30 04:57 -7.78378 -51.21842 35937 ft 469 kts 337°
2026-04-30 04:57 -7.72401 -51.24520 35934 ft 469 kts 337°
2026-04-30 04:58 -7.66401 -51.27207 35934 ft 469 kts 337°
2026-04-30 04:58 -7.60399 -51.29921 35942 ft 470 kts 335°
2026-04-30 04:59 -7.54497 -51.32762 35950 ft 471 kts 335°
2026-04-30 04:59 -7.48540 -51.35628 35953 ft 470 kts 335°
2026-04-30 05:00 -7.42591 -51.38485 35952 ft 469 kts 335°
2026-04-30 05:00 -7.36703 -51.41307 35949 ft 470 kts 335°
2026-04-30 05:01 -7.30758 -51.44155 35944 ft 470 kts 335°
2026-04-30 05:01 -7.24829 -51.46993 35942 ft 470 kts 335°
2026-04-30 05:02 -7.18884 -51.49838 35940 ft 470 kts 335°
2026-04-30 05:02 -7.12975 -51.52664 35940 ft 469 kts 335°
2026-04-30 05:03 -7.07054 -51.55497 35941 ft 469 kts 335°
2026-04-30 05:03 -7.01114 -51.58338 35939 ft 469 kts 335°
2026-04-30 05:04 -6.95173 -51.61180 35939 ft 469 kts 335°
2026-04-30 05:04 -6.89296 -51.63990 35941 ft 468 kts 335°
2026-04-30 05:05 -6.83391 -51.66813 35940 ft 469 kts 335°
2026-04-30 05:05 -6.77469 -51.69643 35935 ft 468 kts 335°
2026-04-30 05:06 -6.68617 -51.73870 35927 ft 467 kts 335°
2026-04-30 05:06 -6.62676 -51.76705 35925 ft 467 kts 335°
2026-04-30 05:07 -6.56813 -51.79503 35928 ft 467 kts 335°
2026-04-30 05:07 -6.50947 -51.82301 35934 ft 467 kts 335°
2026-04-30 05:08 -6.45066 -51.85105 35937 ft 466 kts 335°
2026-04-30 05:08 -6.39200 -51.87902 35939 ft 466 kts 335°
2026-04-30 05:09 -6.33317 -51.90706 35934 ft 466 kts 335°
2026-04-30 05:09 -6.27445 -51.93504 35930 ft 465 kts 335°
2026-04-30 05:10 -6.21586 -51.96296 35924 ft 465 kts 335°
2026-04-30 05:10 -6.15712 -51.99093 35921 ft 465 kts 335°
2026-04-30 05:11 -6.09860 -52.01880 35916 ft 465 kts 335°
2026-04-30 05:11 -6.03986 -52.04676 35917 ft 465 kts 335°
2026-04-30 05:12 -5.98131 -52.07463 35911 ft 464 kts 335°
2026-04-30 05:12 -5.92274 -52.10249 35915 ft 465 kts 335°
2026-04-30 05:13 -5.86440 -52.13025 35924 ft 464 kts 335°
2026-04-30 05:13 -5.80595 -52.15805 35928 ft 464 kts 335°
2026-04-30 05:14 -5.74743 -52.18588 35931 ft 464 kts 334°
2026-04-30 05:14 -5.68876 -52.21377 35929 ft 464 kts 334°
2026-04-30 05:15 -5.63035 -52.24152 35920 ft 465 kts 334°
2026-04-30 05:15 -5.57152 -52.26948 35918 ft 465 kts 334°
2026-04-30 05:16 -5.51265 -52.29745 35912 ft 465 kts 334°
2026-04-30 05:16 -5.45410 -52.32526 35911 ft 464 kts 334°
2026-04-30 05:17 -5.39589 -52.35290 35912 ft 463 kts 334°
2026-04-30 05:17 -5.33703 -52.38084 35907 ft 464 kts 334°
2026-04-30 05:18 -5.27846 -52.40865 35907 ft 465 kts 334°
2026-04-30 05:18 -5.21977 -52.43649 35906 ft 464 kts 334°
2026-04-30 05:19 -5.16143 -52.46418 35903 ft 464 kts 334°
2026-04-30 05:19 -5.10292 -52.49193 35899 ft 464 kts 334°
2026-04-30 05:20 -5.04450 -52.51964 35898 ft 464 kts 334°
2026-04-30 05:20 -4.98582 -52.54746 35893 ft 463 kts 334°
2026-04-30 05:21 -4.92719 -52.57526 35893 ft 464 kts 334°
2026-04-30 05:21 -4.86845 -52.60310 35893 ft 464 kts 334°
2026-04-30 05:22 -4.80996 -52.63082 35889 ft 465 kts 334°
2026-04-30 05:22 -4.75110 -52.65870 35893 ft 464 kts 335°
2026-04-30 05:23 -4.69278 -52.68633 35893 ft 463 kts 335°
2026-04-30 05:23 -4.63433 -52.71402 35895 ft 463 kts 335°
2026-04-30 05:24 -4.57566 -52.74180 35897 ft 462 kts 335°
2026-04-30 05:24 -4.51761 -52.76928 35897 ft 463 kts 334°
2026-04-30 05:25 -4.45906 -52.79699 35897 ft 463 kts 334°
2026-04-30 05:25 -4.40047 -52.82471 35897 ft 463 kts 335°
2026-04-30 05:26 -4.34196 -52.85239 35895 ft 463 kts 335°
2026-04-30 05:26 -4.28361 -52.88000 35895 ft 463 kts 335°
2026-04-30 05:27 -4.22487 -52.90778 35895 ft 462 kts 335°
2026-04-30 05:27 -4.16648 -52.93539 35896 ft 463 kts 334°
2026-04-30 05:28 -4.10785 -52.96310 35895 ft 463 kts 335°
2026-04-30 05:28 -4.04936 -52.99076 35895 ft 463 kts 335°
2026-04-30 05:29 -3.99085 -53.01841 35893 ft 463 kts 335°
2026-04-30 05:29 -3.93258 -53.04594 35894 ft 462 kts 335°
2026-04-30 05:30 -3.87455 -53.07336 35896 ft 461 kts 335°
2026-04-30 05:30 -3.81585 -53.10109 35897 ft 462 kts 335°
2026-04-30 05:31 -3.75760 -53.12860 35898 ft 462 kts 335°
2026-04-30 05:31 -3.69881 -53.15636 35897 ft 462 kts 335°
2026-04-30 05:32 -3.64050 -53.18390 35898 ft 462 kts 335°
2026-04-30 05:32 -3.58218 -53.21144 35897 ft 462 kts 335°
2026-04-30 05:33 -3.52360 -53.23909 35898 ft 462 kts 335°
2026-04-30 05:33 -3.46503 -53.26673 35889 ft 462 kts 335°
2026-04-30 05:34 -3.40650 -53.29436 35886 ft 462 kts 335°
2026-04-30 05:34 -3.34799 -53.32196 35884 ft 462 kts 335°
2026-04-30 05:35 -3.28953 -53.34955 35879 ft 462 kts 335°
2026-04-30 05:35 -3.23129 -53.37703 35878 ft 462 kts 335°
2026-04-30 05:36 -3.17308 -53.40449 35876 ft 463 kts 335°
2026-04-30 05:36 -3.11476 -53.43201 35878 ft 462 kts 335°
2026-04-30 05:37 -3.05619 -53.45964 35876 ft 461 kts 335°
2026-04-30 05:37 -2.99802 -53.48707 35875 ft 461 kts 335°
2026-04-30 05:38 -2.93981 -53.51452 35875 ft 461 kts 335°
2026-04-30 05:38 -2.88205 -53.54176 35878 ft 461 kts 335°
2026-04-30 05:39 -2.82326 -53.56948 35880 ft 461 kts 335°
2026-04-30 05:39 -2.76480 -53.59704 35878 ft 460 kts 335°
2026-04-30 05:40 -2.70677 -53.62440 35878 ft 459 kts 335°
2026-04-30 05:40 -2.64843 -53.65189 35875 ft 461 kts 335°
2026-04-30 05:41 -2.58972 -53.67956 35874 ft 460 kts 335°
2026-04-30 05:41 -2.53061 -53.70741 35875 ft 459 kts 335°
2026-04-30 05:42 -2.47213 -53.73497 35872 ft 459 kts 335°
2026-04-30 05:42 -2.41436 -53.76219 35875 ft 458 kts 335°
2026-04-30 05:43 -2.35638 -53.78950 35877 ft 457 kts 335°
2026-04-30 05:43 -2.29828 -53.81687 35880 ft 458 kts 335°
2026-04-30 05:44 -2.24040 -53.84413 35880 ft 458 kts 335°
2026-04-30 05:44 -2.18223 -53.87152 35878 ft 457 kts 335°
2026-04-30 05:45 -2.12453 -53.89869 35872 ft 457 kts 335°
2026-04-30 05:45 -2.06694 -53.92581 35872 ft 457 kts 335°
2026-04-30 05:46 -2.00929 -53.95295 35868 ft 456 kts 335°
2026-04-30 05:46 -1.95161 -53.98010 35870 ft 456 kts 335°
2026-04-30 05:47 -1.89399 -54.00722 35872 ft 457 kts 335°
2026-04-30 05:47 -1.83609 -54.03448 35883 ft 457 kts 335°
2026-04-30 05:48 -1.77829 -54.06168 35890 ft 457 kts 335°
2026-04-30 05:48 -1.72024 -54.08900 35891 ft 457 kts 335°
2026-04-30 05:49 -1.66251 -54.11617 35896 ft 456 kts 335°
2026-04-30 05:49 -1.60522 -54.14313 35905 ft 456 kts 335°
2026-04-30 05:50 -1.54773 -54.17017 35908 ft 455 kts 335°
2026-04-30 05:50 -1.48999 -54.19734 35904 ft 456 kts 335°
2026-04-30 05:51 -1.43236 -54.22446 35905 ft 456 kts 335°
2026-04-30 05:51 -1.37485 -54.25151 35904 ft 455 kts 335°
2026-04-30 05:52 -1.31737 -54.27855 35905 ft 455 kts 335°
2026-04-30 05:52 -1.25971 -54.30567 35911 ft 455 kts 335°
2026-04-30 05:53 -1.20220 -54.33272 35912 ft 455 kts 335°
2026-04-30 05:53 -1.14499 -54.35963 35912 ft 456 kts 335°
2026-04-30 05:54 -1.08716 -54.38683 35908 ft 455 kts 335°
2026-04-30 05:54 -1.02959 -54.41391 35905 ft 455 kts 335°
2026-04-30 05:55 -0.97150 -54.44122 35902 ft 454 kts 335°
2026-04-30 05:55 -0.91402 -54.46826 35900 ft 455 kts 335°
2026-04-30 05:56 -0.85689 -54.49512 35901 ft 455 kts 335°
2026-04-30 05:56 -0.79909 -54.52230 35900 ft 457 kts 334°
2026-04-30 05:57 -0.74154 -54.54937 35903 ft 454 kts 335°
2026-04-30 05:57 -0.68403 -54.57641 35905 ft 455 kts 335°
2026-04-30 05:58 -0.62618 -54.60360 36357 ft 458 kts 335°
2026-04-30 05:58 -0.59770 -54.61700 36728 ft 457 kts 335°
2026-04-30 05:58 -0.56859 -54.63068 36927 ft 459 kts 335°
2026-04-30 05:59 -0.53963 -54.64430 37035 ft 462 kts 334°
2026-04-30 05:59 -0.51033 -54.65808 37169 ft 465 kts 335°
2026-04-30 05:59 -0.48088 -54.67193 37417 ft 465 kts 334°
2026-04-30 05:59 -0.45163 -54.68567 37666 ft 465 kts 334°
2026-04-30 06:00 -0.42204 -54.69958 37814 ft 467 kts 334°
2026-04-30 06:00 -0.39235 -54.71355 37991 ft 468 kts 334°
2026-04-30 06:00 -0.36289 -54.72740 38199 ft 468 kts 334°
2026-04-30 06:00 -0.33334 -54.74129 38367 ft 469 kts 334°
2026-04-30 06:01 -0.30365 -54.75525 38515 ft 470 kts 334°
2026-04-30 06:01 -0.27404 -54.76917 38650 ft 471 kts 334°
2026-04-30 06:01 -0.24391 -54.78334 38763 ft 473 kts 334°
2026-04-30 06:01 -0.21414 -54.79733 38943 ft 473 kts 334°
2026-04-30 06:02 -0.18417 -54.81142 39097 ft 473 kts 334°
2026-04-30 06:02 -0.15458 -54.82533 39275 ft 473 kts 334°
2026-04-30 06:02 -0.12453 -54.83946 39496 ft 472 kts 334°
2026-04-30 06:02 -0.09492 -54.85338 39689 ft 471 kts 334°
2026-04-30 06:03 -0.06531 -54.86730 39813 ft 471 kts 334°
2026-04-30 06:03 -0.03544 -54.88134 39901 ft 471 kts 334°
2026-04-30 06:03 0.02394 -54.90926 39937 ft 472 kts 334°
2026-04-30 06:04 0.08371 -54.93736 39943 ft 472 kts 334°
2026-04-30 06:05 0.17199 -54.97886 39948 ft 471 kts 334°
2026-04-30 06:05 0.23145 -55.00682 39955 ft 470 kts 334°
2026-04-30 06:06 0.29077 -55.03471 39954 ft 471 kts 334°
2026-04-30 06:06 0.35025 -55.06267 39939 ft 471 kts 334°
2026-04-30 06:07 0.40978 -55.09066 39928 ft 470 kts 334°
2026-04-30 06:07 0.46890 -55.11845 39924 ft 470 kts 334°
2026-04-30 06:08 0.52827 -55.14637 39924 ft 469 kts 334°
2026-04-30 06:08 0.58795 -55.17443 39918 ft 469 kts 334°
2026-04-30 06:09 0.64702 -55.20220 39922 ft 468 kts 334°
2026-04-30 06:09 0.70595 -55.22991 39922 ft 469 kts 334°
2026-04-30 06:10 0.76514 -55.25774 39929 ft 468 kts 334°
2026-04-30 06:10 0.82462 -55.28571 39926 ft 467 kts 334°
2026-04-30 06:11 0.88363 -55.31347 39932 ft 468 kts 334°
2026-04-30 06:11 0.94249 -55.34114 39931 ft 468 kts 334°
2026-04-30 06:12 1.00165 -55.36896 39929 ft 467 kts 334°
2026-04-30 06:12 1.06027 -55.39653 39927 ft 466 kts 334°
2026-04-30 06:13 1.11924 -55.42426 39931 ft 465 kts 334°
2026-04-30 06:13 1.17765 -55.45174 39928 ft 466 kts 334°
2026-04-30 06:14 1.23636 -55.47935 39929 ft 466 kts 334°
2026-04-30 06:14 1.29498 -55.50693 39931 ft 465 kts 334°
2026-04-30 06:15 1.35377 -55.53458 39935 ft 466 kts 334°
2026-04-30 06:15 1.41265 -55.56228 39934 ft 464 kts 334°
2026-04-30 06:16 1.47134 -55.58989 39932 ft 464 kts 334°
2026-04-30 06:16 1.52987 -55.61743 39937 ft 464 kts 334°
2026-04-30 06:17 1.58857 -55.64507 39938 ft 464 kts 334°
2026-04-30 06:17 1.64725 -55.67272 39942 ft 462 kts 334°
2026-04-30 06:18 1.70546 -55.70013 39944 ft 462 kts 334°
2026-04-30 06:18 1.76392 -55.72768 39943 ft 461 kts 334°
2026-04-30 06:19 1.82193 -55.75499 39942 ft 461 kts 334°
2026-04-30 06:19 1.88020 -55.78240 39935 ft 461 kts 334°
2026-04-30 06:20 1.93854 -55.80985 39931 ft 461 kts 334°
2026-04-30 06:20 1.99630 -55.83702 39932 ft 459 kts 334°
2026-04-30 06:21 2.05427 -55.86431 39935 ft 459 kts 334°
2026-04-30 06:21 2.11241 -55.89167 39937 ft 459 kts 333°
2026-04-30 06:22 2.17029 -55.91891 39937 ft 459 kts 334°
2026-04-30 06:22 2.22835 -55.94628 39932 ft 458 kts 332°
2026-04-30 06:23 2.28516 -55.97572 39937 ft 459 kts 331°
2026-04-30 06:23 2.34220 -56.00550 39936 ft 458 kts 332°
2026-04-30 06:24 2.39878 -56.03496 39938 ft 458 kts 332°
2026-04-30 06:24 2.45547 -56.06442 39943 ft 457 kts 332°
2026-04-30 06:25 2.51216 -56.09385 39945 ft 457 kts 332°
2026-04-30 06:25 2.56861 -56.12315 39946 ft 458 kts 332°
2026-04-30 06:26 2.62512 -56.15248 39948 ft 457 kts 332°
2026-04-30 06:26 2.68184 -56.18191 39949 ft 457 kts 332°
2026-04-30 06:27 2.73826 -56.21120 39951 ft 455 kts 332°
2026-04-30 06:27 2.79487 -56.24058 39950 ft 457 kts 332°
2026-04-30 06:28 2.85131 -56.26988 39943 ft 456 kts 332°
2026-04-30 06:28 2.90785 -56.29922 39936 ft 457 kts 332°
2026-04-30 06:29 2.96436 -56.32857 39931 ft 457 kts 332°
2026-04-30 06:29 3.02085 -56.35790 39926 ft 456 kts 332°
2026-04-30 06:30 3.07723 -56.38718 39928 ft 455 kts 332°
2026-04-30 06:30 3.13376 -56.41654 39939 ft 456 kts 332°
2026-04-30 06:31 3.18994 -56.44572 39947 ft 456 kts 332°
2026-04-30 06:31 3.24643 -56.47507 39957 ft 457 kts 332°
2026-04-30 06:32 3.30328 -56.50461 39956 ft 457 kts 332°
2026-04-30 06:32 3.35961 -56.53388 39941 ft 457 kts 332°
2026-04-30 06:33 3.41631 -56.56335 39931 ft 456 kts 332°
2026-04-30 06:33 3.47271 -56.59266 39932 ft 457 kts 332°
2026-04-30 06:34 3.52936 -56.62210 39933 ft 456 kts 332°
2026-04-30 06:34 3.58606 -56.65159 39943 ft 457 kts 332°
2026-04-30 06:35 3.64265 -56.68102 39955 ft 458 kts 332°
2026-04-30 06:35 3.69937 -56.71051 39964 ft 458 kts 332°
2026-04-30 06:36 3.75591 -56.73992 39969 ft 457 kts 332°
2026-04-30 06:36 3.81223 -56.76922 39958 ft 457 kts 332°
2026-04-30 06:37 3.86899 -56.79875 39950 ft 457 kts 332°
2026-04-30 06:37 3.92559 -56.82820 39952 ft 457 kts 332°
2026-04-30 06:38 3.98122 -56.85715 39956 ft 458 kts 332°
2026-04-30 06:38 4.03782 -56.88662 39959 ft 458 kts 332°
2026-04-30 06:39 4.09457 -56.91616 39961 ft 457 kts 332°
2026-04-30 06:39 4.15104 -56.94556 39967 ft 457 kts 332°
2026-04-30 06:40 4.20762 -56.97503 39961 ft 457 kts 332°
2026-04-30 06:40 4.26446 -57.00464 39956 ft 458 kts 332°
2026-04-30 06:41 4.32095 -57.03406 39951 ft 459 kts 332°
2026-04-30 06:41 4.37776 -57.06366 39946 ft 457 kts 332°
2026-04-30 06:42 4.43400 -57.09297 39932 ft 458 kts 332°
2026-04-30 06:42 4.49070 -57.12252 39923 ft 457 kts 331°
2026-04-30 06:43 4.54716 -57.15196 39917 ft 457 kts 332°
2026-04-30 06:43 4.60395 -57.18157 39920 ft 459 kts 332°
2026-04-30 06:44 4.66053 -57.21108 39917 ft 459 kts 332°
2026-04-30 06:44 4.71736 -57.24072 39920 ft 459 kts 332°
2026-04-30 06:45 4.77408 -57.27031 39917 ft 458 kts 332°
2026-04-30 06:45 4.83057 -57.29978 39915 ft 458 kts 332°
2026-04-30 06:46 4.88716 -57.32932 39915 ft 457 kts 332°
2026-04-30 06:46 4.94392 -57.35894 39914 ft 458 kts 331°
2026-04-30 06:47 5.00037 -57.38842 39907 ft 458 kts 332°
2026-04-30 06:47 5.05699 -57.41795 39908 ft 458 kts 332°
2026-04-30 06:48 5.11376 -57.44751 39911 ft 459 kts 332°
2026-04-30 06:48 5.17111 -57.47739 39912 ft 458 kts 332°
2026-04-30 06:49 5.22772 -57.50689 39910 ft 459 kts 332°
2026-04-30 06:49 5.28471 -57.53660 39910 ft 460 kts 332°
2026-04-30 06:50 5.34152 -57.56621 39909 ft 459 kts 331°
2026-04-30 06:50 5.39815 -57.59575 39909 ft 460 kts 332°
2026-04-30 06:51 5.45523 -57.62552 39908 ft 460 kts 332°
2026-04-30 06:51 5.51211 -57.65519 39910 ft 460 kts 331°
2026-04-30 06:52 5.56934 -57.68505 39911 ft 461 kts 331°
2026-04-30 06:52 5.62636 -57.71481 39911 ft 461 kts 331°
2026-04-30 06:53 5.68405 -57.74493 39911 ft 462 kts 332°
2026-04-30 06:53 5.74150 -57.77492 39909 ft 461 kts 331°
2026-04-30 06:54 5.79856 -57.80472 39913 ft 462 kts 331°
2026-04-30 06:54 5.85574 -57.83459 39910 ft 461 kts 331°
2026-04-30 06:55 5.91349 -57.86476 39908 ft 461 kts 331°
2026-04-30 06:55 5.97068 -57.89465 39910 ft 462 kts 331°
2026-04-30 06:56 6.02804 -57.92464 39908 ft 462 kts 331°
2026-04-30 06:56 6.08546 -57.95466 39914 ft 461 kts 331°
2026-04-30 06:57 6.14308 -57.98480 39920 ft 461 kts 331°
2026-04-30 06:57 6.20046 -58.01482 39930 ft 461 kts 331°
2026-04-30 06:58 6.25796 -58.04490 39933 ft 461 kts 331°
2026-04-30 06:58 6.31518 -58.07485 39932 ft 462 kts 331°
2026-04-30 06:59 6.37214 -58.10467 39929 ft 462 kts 331°
2026-04-30 06:59 6.42937 -58.13464 39928 ft 461 kts 331°
2026-04-30 07:00 6.48661 -58.16462 39926 ft 460 kts 331°
2026-04-30 07:00 6.54425 -58.19482 39925 ft 460 kts 331°
2026-04-30 07:01 6.60087 -58.22449 39926 ft 460 kts 331°
2026-04-30 07:01 6.65768 -58.25427 39926 ft 461 kts 331°
2026-04-30 07:02 6.71460 -58.28412 39924 ft 460 kts 331°
2026-04-30 07:02 6.77187 -58.31415 39917 ft 461 kts 331°
2026-04-30 07:03 6.82889 -58.34407 39916 ft 459 kts 331°
2026-04-30 07:03 6.88545 -58.37374 39916 ft 459 kts 331°
2026-04-30 07:04 6.94212 -58.40349 39913 ft 458 kts 331°
2026-04-30 07:04 6.99892 -58.43332 39907 ft 460 kts 331°
2026-04-30 07:05 7.08427 -58.47814 39904 ft 460 kts 331°
2026-04-30 07:05 7.14111 -58.50801 39908 ft 461 kts 331°
2026-04-30 07:06 7.19799 -58.53790 39908 ft 459 kts 331°
2026-04-30 07:06 7.25465 -58.56769 39909 ft 459 kts 331°
2026-04-30 07:07 7.31152 -58.59759 39909 ft 460 kts 331°
2026-04-30 07:07 7.36831 -58.62746 39909 ft 460 kts 331°
2026-04-30 07:08 7.42528 -58.65744 39914 ft 460 kts 331°
2026-04-30 07:08 7.48217 -58.68738 39912 ft 459 kts 331°
2026-04-30 07:09 7.53889 -58.71725 39911 ft 459 kts 330°
2026-04-30 07:09 7.59587 -58.74725 39913 ft 459 kts 330°
2026-04-30 07:10 7.65235 -58.77700 39914 ft 458 kts 330°
2026-04-30 07:10 7.70916 -58.80694 39915 ft 459 kts 330°
2026-04-30 07:11 7.76604 -58.83693 39915 ft 460 kts 330°
2026-04-30 07:11 7.82304 -58.86698 39914 ft 460 kts 330°
2026-04-30 07:12 7.87980 -58.89691 39911 ft 459 kts 330°
2026-04-30 07:12 7.93665 -58.92691 39913 ft 458 kts 330°
2026-04-30 07:13 7.99322 -58.95676 39910 ft 458 kts 330°
2026-04-30 07:13 8.05000 -58.98674 39911 ft 459 kts 330°
2026-04-30 07:14 8.10646 -59.01656 39918 ft 459 kts 330°
2026-04-30 07:14 8.16329 -59.04658 39931 ft 458 kts 330°
2026-04-30 07:15 8.21994 -59.07652 39928 ft 459 kts 330°
2026-04-30 07:15 8.27640 -59.10636 39929 ft 460 kts 330°
2026-04-30 07:16 8.33301 -59.13629 39928 ft 458 kts 330°
2026-04-30 07:16 8.38972 -59.16629 39928 ft 458 kts 330°
2026-04-30 07:17 8.44622 -59.19619 39929 ft 458 kts 330°
2026-04-30 07:18 8.53125 -59.24120 39929 ft 458 kts 330°
2026-04-30 07:18 8.58773 -59.27111 39927 ft 458 kts 330°
2026-04-30 07:19 8.64422 -59.30103 39926 ft 458 kts 330°
2026-04-30 07:19 8.70064 -59.33093 39928 ft 458 kts 330°
2026-04-30 07:20 8.75533 -59.36351 39924 ft 455 kts 320°
2026-04-30 07:20 8.79922 -59.40892 39918 ft 452 kts 304°
2026-04-30 07:21 8.82844 -59.46500 39909 ft 451 kts 289°
2026-04-30 07:21 8.84064 -59.52724 39904 ft 452 kts 273°
2026-04-30 07:22 8.82522 -59.62065 39900 ft 458 kts 250°
2026-04-30 07:22 8.79300 -59.67643 39909 ft 463 kts 233°
2026-04-30 07:23 8.74587 -59.72069 39906 ft 470 kts 217°
2026-04-30 07:23 8.68645 -59.74972 39910 ft 478 kts 200°
2026-04-30 07:24 8.61973 -59.75958 39910 ft 486 kts 182°
2026-04-30 07:24 8.55284 -59.74840 39910 ft 494 kts 163°
2026-04-30 07:25 8.49154 -59.71637 39908 ft 498 kts 144°
2026-04-30 07:25 8.44241 -59.66719 39921 ft 502 kts 131°
2026-04-30 07:26 8.39741 -59.61270 39909 ft 503 kts 130°
2026-04-30 07:26 8.35273 -59.55851 39914 ft 503 kts 130°
2026-04-30 07:27 8.30797 -59.50423 39913 ft 502 kts 130°
2026-04-30 07:27 8.26007 -59.45320 39912 ft 500 kts 143°
2026-04-30 07:28 8.20109 -59.41708 39911 ft 495 kts 158°
2026-04-30 07:28 8.13658 -59.39415 39913 ft 492 kts 167°
2026-04-30 07:29 8.06949 -59.37893 39917 ft 491 kts 172°
2026-04-30 07:29 8.00178 -59.36779 39914 ft 490 kts 174°
2026-04-30 07:30 7.90051 -59.35508 39918 ft 489 kts 176°
2026-04-30 07:31 7.83230 -59.34780 39911 ft 489 kts 177°
2026-04-30 07:31 7.76451 -59.34105 39911 ft 488 kts 177°
2026-04-30 07:32 7.69691 -59.33456 39917 ft 488 kts 177°
2026-04-30 07:32 7.62930 -59.32822 39919 ft 489 kts 177°
2026-04-30 07:33 7.56142 -59.32193 39922 ft 489 kts 177°
2026-04-30 07:33 7.49326 -59.31565 39927 ft 488 kts 177°
2026-04-30 07:34 7.42566 -59.30944 39931 ft 489 kts 177°
2026-04-30 07:34 7.35747 -59.30320 39941 ft 489 kts 177°
2026-04-30 07:35 7.28923 -59.29695 39946 ft 490 kts 177°
2026-04-30 07:35 7.22116 -59.29073 39947 ft 490 kts 177°
2026-04-30 07:36 7.15355 -59.28455 39948 ft 490 kts 177°
2026-04-30 07:36 7.08538 -59.27833 39946 ft 489 kts 177°
2026-04-30 07:37 7.01743 -59.27213 39945 ft 489 kts 177°
2026-04-30 07:37 6.94888 -59.26587 39942 ft 491 kts 177°
2026-04-30 07:38 6.88081 -59.25966 39931 ft 491 kts 177°
2026-04-30 07:38 6.81126 -59.25332 39935 ft 490 kts 177°
2026-04-30 07:39 6.74289 -59.24709 39932 ft 491 kts 177°
2026-04-30 07:39 6.67422 -59.24083 39930 ft 491 kts 177°
2026-04-30 07:40 6.60639 -59.23465 39936 ft 490 kts 177°
2026-04-30 07:40 6.53787 -59.22841 39939 ft 490 kts 177°
2026-04-30 07:41 6.46972 -59.22220 39942 ft 491 kts 177°
2026-04-30 07:41 6.40145 -59.21598 39944 ft 492 kts 177°
2026-04-30 07:42 6.33353 -59.20980 39943 ft 490 kts 177°
2026-04-30 07:42 6.26501 -59.20356 39942 ft 491 kts 177°
2026-04-30 07:43 6.19668 -59.19735 39941 ft 492 kts 177°
2026-04-30 07:43 6.12852 -59.19115 39937 ft 491 kts 177°
2026-04-30 07:44 6.06049 -59.18496 39934 ft 491 kts 177°
2026-04-30 07:44 5.99183 -59.17873 39933 ft 492 kts 177°
2026-04-30 07:45 5.92302 -59.17247 39937 ft 493 kts 177°
2026-04-30 07:45 5.85478 -59.16627 39940 ft 491 kts 177°
2026-04-30 07:46 5.78581 -59.16001 39947 ft 492 kts 177°
2026-04-30 07:46 5.71731 -59.15379 39953 ft 491 kts 177°
2026-04-30 07:47 5.64855 -59.14755 39956 ft 491 kts 177°
2026-04-30 07:47 5.57969 -59.14129 39961 ft 491 kts 177°
2026-04-30 07:48 5.51155 -59.13511 39966 ft 491 kts 177°
2026-04-30 07:48 5.44287 -59.12888 39967 ft 491 kts 177°
2026-04-30 07:49 5.37452 -59.12268 39975 ft 490 kts 177°
2026-04-30 07:49 5.30636 -59.11650 39977 ft 490 kts 177°
2026-04-30 07:50 5.23865 -59.11036 39988 ft 490 kts 177°
2026-04-30 07:50 5.17047 -59.10418 40001 ft 489 kts 176°
2026-04-30 07:51 5.10229 -59.09800 40011 ft 489 kts 176°
2026-04-30 07:51 5.03447 -59.09186 40014 ft 490 kts 176°
2026-04-30 07:52 4.96600 -59.08566 40008 ft 489 kts 176°
2026-04-30 07:52 4.89798 -59.07949 39991 ft 490 kts 176°
2026-04-30 07:53 4.83006 -59.07334 39978 ft 490 kts 177°
2026-04-30 07:53 4.76197 -59.06718 39966 ft 489 kts 176°
2026-04-30 07:54 4.69377 -59.06101 39960 ft 491 kts 176°
2026-04-30 07:54 4.62523 -59.05480 39960 ft 491 kts 176°
2026-04-30 07:55 4.55702 -59.04863 39958 ft 492 kts 176°
2026-04-30 07:55 4.48857 -59.04244 39959 ft 492 kts 176°
2026-04-30 07:56 4.42054 -59.03629 39956 ft 492 kts 176°
2026-04-30 07:56 4.35134 -59.03003 39947 ft 492 kts 176°
2026-04-30 07:57 4.28246 -59.02380 39940 ft 494 kts 176°
2026-04-30 07:57 4.21509 -59.01771 39933 ft 492 kts 176°
2026-04-30 07:58 4.14692 -59.01155 39925 ft 493 kts 176°
2026-04-30 07:58 4.07823 -59.00534 39908 ft 493 kts 176°
2026-04-30 07:59 4.00967 -58.99915 39913 ft 492 kts 176°
2026-04-30 07:59 3.94112 -58.99296 39921 ft 493 kts 176°
2026-04-30 08:00 3.83824 -58.98367 39919 ft 493 kts 176°
2026-04-30 08:00 3.76927 -58.97744 39909 ft 492 kts 176°
2026-04-30 08:01 3.70047 -58.97123 39913 ft 492 kts 176°
2026-04-30 08:01 3.63179 -58.96503 39914 ft 492 kts 176°
2026-04-30 08:02 3.52914 -58.95576 39923 ft 491 kts 176°
2026-04-30 08:03 3.39235 -58.94342 39925 ft 491 kts 176°
2026-04-30 08:04 3.32420 -58.93727 39924 ft 492 kts 176°
2026-04-30 08:04 3.25593 -58.93112 39926 ft 491 kts 176°
2026-04-30 08:05 3.18756 -58.92495 39928 ft 492 kts 176°
2026-04-30 08:05 3.11895 -58.91877 39928 ft 491 kts 176°
2026-04-30 08:06 3.05024 -58.91257 39929 ft 492 kts 176°
2026-04-30 08:06 2.98144 -58.90637 39929 ft 490 kts 176°
2026-04-30 08:07 2.91290 -58.90019 39929 ft 491 kts 176°
2026-04-30 08:07 2.84477 -58.89405 39926 ft 491 kts 176°
2026-04-30 08:08 2.77593 -58.88785 39925 ft 490 kts 176°
2026-04-30 08:08 2.70783 -58.88171 39927 ft 491 kts 176°
2026-04-30 08:09 2.63993 -58.87559 39929 ft 489 kts 176°
2026-04-30 08:09 2.57170 -58.86945 39932 ft 490 kts 176°
2026-04-30 08:10 2.50391 -58.86334 39933 ft 489 kts 176°
2026-04-30 08:10 2.43564 -58.85720 39935 ft 489 kts 176°
2026-04-30 08:11 2.36767 -58.85107 39934 ft 489 kts 176°
2026-04-30 08:11 2.29968 -58.84495 39932 ft 488 kts 176°
2026-04-30 08:12 2.23202 -58.83886 39933 ft 488 kts 176°
2026-04-30 08:12 2.16393 -58.83273 39938 ft 489 kts 175°
2026-04-30 08:13 2.09605 -58.82662 39940 ft 489 kts 175°
2026-04-30 08:13 2.02783 -58.82048 39945 ft 489 kts 176°
2026-04-30 08:14 1.96028 -58.81440 39948 ft 489 kts 175°
2026-04-30 08:14 1.89213 -58.80827 39951 ft 488 kts 175°
2026-04-30 08:15 1.82424 -58.80215 39944 ft 488 kts 175°
2026-04-30 08:15 1.75673 -58.79608 39939 ft 488 kts 175°
2026-04-30 08:16 1.68899 -58.78999 39937 ft 488 kts 175°
2026-04-30 08:16 1.62118 -58.78389 39939 ft 487 kts 175°
2026-04-30 08:17 1.55347 -58.77779 39938 ft 486 kts 175°
2026-04-30 08:17 1.48608 -58.77173 39938 ft 487 kts 175°
2026-04-30 08:18 1.41840 -58.76564 39947 ft 487 kts 175°
2026-04-30 08:18 1.35089 -58.75957 39949 ft 486 kts 175°
2026-04-30 08:19 1.28313 -58.75348 39955 ft 485 kts 175°
2026-04-30 08:19 1.21561 -58.74741 39961 ft 485 kts 175°
2026-04-30 08:20 1.14837 -58.74136 39966 ft 485 kts 175°
2026-04-30 08:20 1.08097 -58.73530 39965 ft 485 kts 175°
2026-04-30 08:21 1.01369 -58.72925 39968 ft 486 kts 175°
2026-04-30 08:21 0.94620 -58.72318 39961 ft 485 kts 175°
2026-04-30 08:22 0.87873 -58.71711 39950 ft 484 kts 175°
2026-04-30 08:22 0.81143 -58.71106 39940 ft 483 kts 175°
2026-04-30 08:23 0.74423 -58.70502 39933 ft 483 kts 175°
2026-04-30 08:23 0.67707 -58.69898 39931 ft 483 kts 175°
2026-04-30 08:24 0.60993 -58.69294 39927 ft 483 kts 175°
2026-04-30 08:24 0.54248 -58.68688 39920 ft 484 kts 175°
2026-04-30 08:25 0.47565 -58.68087 39913 ft 483 kts 175°
2026-04-30 08:25 0.40840 -58.67483 39908 ft 484 kts 175°
2026-04-30 08:26 0.34098 -58.66877 39905 ft 483 kts 175°
2026-04-30 08:26 0.27414 -58.66276 39905 ft 483 kts 175°
2026-04-30 08:27 0.20716 -58.65673 39904 ft 483 kts 175°
2026-04-30 08:27 0.13997 -58.65070 39905 ft 482 kts 175°
2026-04-30 08:28 0.07300 -58.64468 39908 ft 482 kts 175°
2026-04-30 08:28 0.00553 -58.63861 39909 ft 481 kts 175°
2026-04-30 08:29 -0.06119 -58.63261 39910 ft 481 kts 175°
2026-04-30 08:29 -0.12763 -58.62664 39904 ft 481 kts 175°
2026-04-30 08:30 -0.19443 -58.62063 39904 ft 481 kts 175°
2026-04-30 08:30 -0.26178 -58.61458 39902 ft 482 kts 175°
2026-04-30 08:31 -0.32862 -58.60857 39900 ft 480 kts 175°
2026-04-30 08:31 -0.39504 -58.60260 39900 ft 481 kts 175°
2026-04-30 08:32 -0.46205 -58.59658 39898 ft 480 kts 175°
2026-04-30 08:32 -0.52829 -58.59062 39896 ft 479 kts 175°
2026-04-30 08:33 -0.59402 -58.58471 39890 ft 480 kts 175°
2026-04-30 08:33 -0.66100 -58.57869 39885 ft 480 kts 175°
2026-04-30 08:34 -0.72771 -58.57269 39881 ft 480 kts 174°
2026-04-30 08:34 -0.79440 -58.56670 39879 ft 480 kts 174°
2026-04-30 08:35 -0.86089 -58.56072 39879 ft 479 kts 174°
2026-04-30 08:35 -0.92754 -58.55473 39877 ft 478 kts 174°
2026-04-30 08:36 -0.99401 -58.54875 39876 ft 479 kts 174°
2026-04-30 08:36 -1.06065 -58.54275 39877 ft 479 kts 174°
2026-04-30 08:37 -1.12756 -58.53674 39876 ft 480 kts 174°
2026-04-30 08:37 -1.19417 -58.53075 39876 ft 479 kts 174°
2026-04-30 08:38 -1.26054 -58.52478 39875 ft 479 kts 174°
2026-04-30 08:38 -1.32687 -58.51881 39875 ft 478 kts 174°
2026-04-30 08:39 -1.39322 -58.51284 39874 ft 478 kts 174°
2026-04-30 08:39 -1.45998 -58.50684 39873 ft 478 kts 174°
2026-04-30 08:40 -1.52643 -58.50086 39876 ft 478 kts 174°
2026-04-30 08:40 -1.59299 -58.49488 39880 ft 478 kts 174°
2026-04-30 08:41 -1.65922 -58.48892 39884 ft 478 kts 174°
2026-04-30 08:41 -1.72581 -58.48293 39884 ft 477 kts 174°
2026-04-30 08:42 -1.79206 -58.47696 39885 ft 478 kts 174°
2026-04-30 08:42 -1.85812 -58.47102 39886 ft 478 kts 174°
2026-04-30 08:43 -1.92456 -58.46504 39886 ft 478 kts 174°
2026-04-30 08:43 -1.99087 -58.45907 39887 ft 477 kts 174°
2026-04-30 08:44 -2.05745 -58.45308 39887 ft 477 kts 174°
2026-04-30 08:44 -2.12390 -58.44710 39884 ft 477 kts 174°
2026-04-30 08:45 -2.19003 -58.44114 39878 ft 477 kts 174°
2026-04-30 08:45 -2.25632 -58.43518 39880 ft 477 kts 174°
2026-04-30 08:46 -2.32272 -58.42920 39880 ft 478 kts 174°
2026-04-30 08:46 -2.38895 -58.42323 39880 ft 478 kts 174°
2026-04-30 08:47 -2.45571 -58.41722 39878 ft 479 kts 174°
2026-04-30 08:47 -2.52276 -58.41118 39873 ft 478 kts 174°
2026-04-30 08:48 -2.58922 -58.40520 39874 ft 479 kts 174°
2026-04-30 08:48 -2.65590 -58.39919 39872 ft 477 kts 174°
2026-04-30 08:49 -2.72221 -58.39321 39874 ft 478 kts 174°
2026-04-30 08:49 -2.78870 -58.38723 39872 ft 478 kts 174°
2026-04-30 08:50 -2.85518 -58.38123 39873 ft 478 kts 174°
2026-04-30 08:50 -2.92177 -58.37523 39870 ft 479 kts 174°
2026-04-30 08:51 -2.98850 -58.36922 39872 ft 480 kts 174°
2026-04-30 08:51 -3.05538 -58.36319 39869 ft 480 kts 174°
2026-04-30 08:52 -3.12218 -58.35717 39865 ft 479 kts 174°
2026-04-30 08:52 -3.18862 -58.35118 39871 ft 478 kts 174°
2026-04-30 08:53 -3.25522 -58.34517 39867 ft 477 kts 174°
2026-04-30 08:53 -3.32179 -58.33917 39870 ft 478 kts 174°
2026-04-30 08:54 -3.38794 -58.33320 39869 ft 478 kts 174°
2026-04-30 08:54 -3.45428 -58.32721 39868 ft 479 kts 174°
2026-04-30 08:55 -3.52122 -58.32117 39872 ft 477 kts 174°
2026-04-30 08:55 -3.58771 -58.31517 39869 ft 477 kts 174°
2026-04-30 08:56 -3.65412 -58.30918 39881 ft 477 kts 174°
2026-04-30 08:56 -3.72081 -58.30316 39892 ft 477 kts 174°
2026-04-30 08:57 -3.78718 -58.29717 39889 ft 477 kts 174°
2026-04-30 08:57 -3.85390 -58.29114 39890 ft 476 kts 174°
2026-04-30 08:58 -3.91996 -58.28518 39891 ft 475 kts 174°
2026-04-30 08:58 -3.98596 -58.27922 39894 ft 475 kts 174°
2026-04-30 08:59 -4.05173 -58.27327 39897 ft 475 kts 174°
2026-04-30 08:59 -4.11801 -58.26728 39891 ft 475 kts 174°
2026-04-30 09:00 -4.18475 -58.26125 39890 ft 476 kts 174°
2026-04-30 09:00 -4.25110 -58.25526 39883 ft 475 kts 174°
2026-04-30 09:01 -4.31726 -58.24927 39879 ft 476 kts 174°
2026-04-30 09:01 -4.38317 -58.24332 39881 ft 475 kts 174°
2026-04-30 09:02 -4.48198 -58.23438 39875 ft 476 kts 174°
2026-04-30 09:02 -4.54849 -58.22836 39878 ft 475 kts 174°
2026-04-30 09:03 -4.61442 -58.22240 39887 ft 475 kts 174°
2026-04-30 09:03 -4.68009 -58.21646 39894 ft 474 kts 174°
2026-04-30 09:04 -4.74615 -58.21048 39889 ft 475 kts 174°
2026-04-30 09:04 -4.81228 -58.20449 39896 ft 475 kts 174°
2026-04-30 09:05 -4.87827 -58.19852 39894 ft 475 kts 174°
2026-04-30 09:05 -4.94413 -58.19255 39894 ft 475 kts 174°
2026-04-30 09:06 -5.01002 -58.18658 39895 ft 475 kts 174°
2026-04-30 09:06 -5.07611 -58.18059 39891 ft 476 kts 174°
2026-04-30 09:07 -5.14229 -58.17460 39884 ft 476 kts 174°
2026-04-30 09:07 -5.20864 -58.16858 39877 ft 476 kts 174°
2026-04-30 09:08 -5.27501 -58.16257 39885 ft 477 kts 174°
2026-04-30 09:08 -5.34138 -58.15655 39883 ft 478 kts 174°
2026-04-30 09:09 -5.40729 -58.15057 39891 ft 477 kts 174°
2026-04-30 09:09 -5.47389 -58.14453 39891 ft 477 kts 174°
2026-04-30 09:10 -5.53982 -58.13855 39901 ft 476 kts 174°
2026-04-30 09:10 -5.60628 -58.13252 39897 ft 477 kts 174°
2026-04-30 09:11 -5.67257 -58.12650 39901 ft 478 kts 174°
2026-04-30 09:11 -5.73857 -58.12051 39902 ft 477 kts 174°
2026-04-30 09:12 -5.80496 -58.11448 39909 ft 476 kts 174°
2026-04-30 09:12 -5.87122 -58.10846 39905 ft 477 kts 174°
2026-04-30 09:13 -5.93722 -58.10246 39901 ft 476 kts 174°
2026-04-30 09:13 -6.00362 -58.09643 39905 ft 476 kts 174°
2026-04-30 09:14 -6.06958 -58.09043 39904 ft 477 kts 174°
2026-04-30 09:14 -6.13607 -58.08438 39900 ft 477 kts 174°
2026-04-30 09:15 -6.20242 -58.07835 39895 ft 477 kts 174°
2026-04-30 09:15 -6.26865 -58.07233 39888 ft 477 kts 174°
2026-04-30 09:16 -6.33507 -58.06628 39881 ft 477 kts 174°
2026-04-30 09:16 -6.40153 -58.06023 39875 ft 477 kts 174°
2026-04-30 09:17 -6.46755 -58.05422 39878 ft 477 kts 174°
2026-04-30 09:17 -6.53379 -58.04819 39877 ft 477 kts 174°
2026-04-30 09:18 -6.60017 -58.04214 39881 ft 478 kts 174°
2026-04-30 09:18 -6.66627 -58.03612 39888 ft 478 kts 174°
2026-04-30 09:19 -6.73273 -58.03006 39899 ft 478 kts 174°
2026-04-30 09:19 -6.79909 -58.02401 39906 ft 477 kts 174°
2026-04-30 09:20 -6.86551 -58.01796 39902 ft 476 kts 174°
2026-04-30 09:20 -6.93155 -58.01194 39901 ft 477 kts 174°
2026-04-30 09:21 -6.99790 -58.00588 39894 ft 477 kts 174°
2026-04-30 09:21 -7.06420 -57.99983 39896 ft 479 kts 174°
2026-04-30 09:22 -7.13064 -57.99376 39895 ft 477 kts 174°
2026-04-30 09:22 -7.19693 -57.98771 39896 ft 478 kts 174°
2026-04-30 09:23 -7.26337 -57.98164 39896 ft 477 kts 174°
2026-04-30 09:23 -7.32954 -57.97559 39896 ft 477 kts 174°
2026-04-30 09:24 -7.39587 -57.96953 39897 ft 477 kts 174°
2026-04-30 09:24 -7.46252 -57.96344 39896 ft 478 kts 174°
2026-04-30 09:25 -7.52890 -57.95737 39896 ft 478 kts 174°
2026-04-30 09:25 -7.59515 -57.95130 39899 ft 478 kts 174°
2026-04-30 09:26 -7.66153 -57.94523 39902 ft 478 kts 174°
2026-04-30 09:26 -7.72759 -57.93919 39905 ft 478 kts 174°
2026-04-30 09:27 -7.79434 -57.93307 39906 ft 477 kts 174°
2026-04-30 09:27 -7.86073 -57.92699 39904 ft 477 kts 174°
2026-04-30 09:28 -7.92698 -57.92092 39903 ft 477 kts 174°
2026-04-30 09:28 -7.99182 -57.91498 39902 ft 477 kts 174°
2026-04-30 09:29 -8.05813 -57.90890 39901 ft 477 kts 174°
2026-04-30 09:29 -8.12476 -57.90279 39898 ft 477 kts 174°
2026-04-30 09:30 -8.19078 -57.89673 39898 ft 477 kts 174°
2026-04-30 09:30 -8.25738 -57.89062 39897 ft 477 kts 174°
2026-04-30 09:31 -8.32376 -57.88452 39901 ft 478 kts 174°
2026-04-30 09:31 -8.39027 -57.87841 39903 ft 478 kts 174°
2026-04-30 09:32 -8.45654 -57.87233 39903 ft 477 kts 174°
2026-04-30 09:32 -8.52305 -57.86621 39908 ft 477 kts 174°
2026-04-30 09:33 -8.58942 -57.86011 39913 ft 477 kts 174°
2026-04-30 09:33 -8.65572 -57.85401 39916 ft 478 kts 174°
2026-04-30 09:34 -8.72201 -57.84792 39917 ft 478 kts 174°
2026-04-30 09:34 -8.78832 -57.84181 39918 ft 479 kts 174°
2026-04-30 09:35 -8.85482 -57.83569 39921 ft 478 kts 174°
2026-04-30 09:35 -8.92091 -57.82960 39924 ft 477 kts 174°
2026-04-30 09:36 -8.98739 -57.82348 39929 ft 477 kts 174°
2026-04-30 09:36 -9.05374 -57.81736 39931 ft 478 kts 174°
2026-04-30 09:37 -9.12018 -57.81123 39928 ft 479 kts 174°
2026-04-30 09:37 -9.18674 -57.80510 39928 ft 478 kts 174°
2026-04-30 09:38 -9.25270 -57.79901 39929 ft 477 kts 174°
2026-04-30 09:38 -9.31929 -57.79286 39927 ft 478 kts 174°
2026-04-30 09:39 -9.38552 -57.78675 39922 ft 478 kts 174°
2026-04-30 09:39 -9.45186 -57.78062 39919 ft 478 kts 174°
2026-04-30 09:40 -9.51835 -57.77447 39921 ft 478 kts 174°
2026-04-30 09:40 -9.58474 -57.76834 39923 ft 479 kts 174°
2026-04-30 09:41 -9.65163 -57.76215 39921 ft 479 kts 174°
2026-04-30 09:41 -9.71804 -57.75600 39920 ft 479 kts 174°
2026-04-30 09:42 -9.78478 -57.74983 39925 ft 480 kts 174°
2026-04-30 09:42 -9.85152 -57.74365 39924 ft 480 kts 174°
2026-04-30 09:43 -9.91817 -57.73747 39922 ft 480 kts 174°
2026-04-30 09:43 -9.98486 -57.73129 39921 ft 480 kts 174°
2026-04-30 09:44 -10.05153 -57.72511 39922 ft 480 kts 174°
2026-04-30 09:44 -10.11834 -57.71891 39921 ft 480 kts 174°
2026-04-30 09:45 -10.18499 -57.71273 39921 ft 480 kts 174°
2026-04-30 09:45 -10.25169 -57.70654 39924 ft 481 kts 174°
2026-04-30 09:46 -10.31860 -57.70032 39928 ft 481 kts 174°
2026-04-30 09:46 -10.38537 -57.69412 39927 ft 480 kts 174°
2026-04-30 09:47 -10.45185 -57.68794 39929 ft 480 kts 174°
2026-04-30 09:47 -10.51871 -57.68173 39933 ft 480 kts 174°
2026-04-30 09:48 -10.58540 -57.67552 39936 ft 480 kts 174°
2026-04-30 09:48 -10.65206 -57.66932 39939 ft 480 kts 174°
2026-04-30 09:49 -10.71882 -57.66310 39937 ft 480 kts 174°
2026-04-30 09:49 -10.78572 -57.65687 39940 ft 480 kts 174°
2026-04-30 09:50 -10.85212 -57.65068 39938 ft 480 kts 174°
2026-04-30 09:50 -10.91874 -57.64447 39937 ft 480 kts 174°
2026-04-30 09:51 -10.98559 -57.63823 39936 ft 481 kts 174°
2026-04-30 09:51 -11.05248 -57.63199 39936 ft 480 kts 174°
2026-04-30 09:52 -11.11932 -57.62575 39933 ft 480 kts 174°
2026-04-30 09:52 -11.18559 -57.61956 39931 ft 481 kts 174°
2026-04-30 09:53 -11.25268 -57.61330 39931 ft 481 kts 174°
2026-04-30 09:53 -11.31976 -57.60702 39932 ft 482 kts 174°
2026-04-30 09:54 -11.38671 -57.60076 39934 ft 481 kts 174°
2026-04-30 09:54 -11.45347 -57.59451 39939 ft 482 kts 174°
2026-04-30 09:55 -11.52047 -57.58824 39942 ft 481 kts 174°
2026-04-30 09:55 -11.58705 -57.58201 39941 ft 482 kts 174°
2026-04-30 09:56 -11.65414 -57.57572 39940 ft 482 kts 174°
2026-04-30 09:56 -11.72131 -57.56942 39941 ft 483 kts 174°
2026-04-30 09:57 -11.78799 -57.56316 39944 ft 483 kts 174°
2026-04-30 09:57 -11.85523 -57.55685 39949 ft 483 kts 174°
2026-04-30 09:58 -11.92232 -57.55056 39952 ft 483 kts 174°
2026-04-30 09:58 -11.98929 -57.54426 39958 ft 481 kts 174°
2026-04-30 09:59 -12.12312 -57.53168 39954 ft 482 kts 174°
2026-04-30 10:00 -12.22407 -57.52218 39955 ft 483 kts 175°